EW8328 Weather Reports


Display with metric or nautical units.
time (UTC)temp
F
wind
direction
speed
MPH
gust
MPH
rain 1hr
in
rain 24hr
in
rain mn
in
humidity
%
barometer
mb
20260508182359 55 358 2.0 5.0 0.00 0.14 0.14 80 1016.3
20260508181359 55 353 1.0 5.0 0.00 0.14 0.14 81 1016.3
20260508180859 55 355 3.0 5.0 0.00 0.14 0.14 81 1016.4
20260508175859 55 18 2.0 5.0 0.00 0.14 0.14 81 1016.4
20260508175359 56 351 3.0 6.0 0.00 0.14 0.14 81 1016.4
20260508174859 56 328 2.0 3.0 0.00 0.14 0.14 82 1016.3
20260508174359 56 351 1.0 3.0 0.00 0.14 0.14 82 1016.3
20260508173859 56 8 2.0 5.0 0.00 0.14 0.14 81 1016.2
20260508173359 56 14 3.0 5.0 0.00 0.14 0.14 81 1016.2
20260508172859 56 0 2.0 6.0 0.00 0.14 0.14 81 1016.1
20260508171359 56 47 2.0 3.0 0.00 0.14 0.14 80 1016.2
20260508170859 56 339 2.0 3.0 0.00 0.14 0.14 81 1016.1
20260508170359 56 10 1.0 6.0 0.00 0.14 0.14 81 1016.1
20260508165358 56 7 3.0 6.0 0.00 0.14 0.14 80 1016.0
20260508164900 56 353 2.0 5.0 0.00 0.14 0.14 81 1015.9
20260508164358 56 329 2.0 3.0 0.00 0.14 0.14 80 1016.0
20260508163859 56 7 3.0 5.0 0.00 0.14 0.14 80 1015.9
20260508162859 56 9 2.0 6.0 0.00 0.14 0.14 80 1015.9
20260508162359 56 356 2.0 6.0 0.00 0.14 0.14 80 1015.9
20260508161359 56 6 2.0 6.0 0.00 0.14 0.14 81 1015.9
20260508160859 56 348 3.0 7.0 0.00 0.14 0.14 82 1015.9
20260508160359 56 352 2.0 6.0 0.00 0.14 0.14 82 1015.9
20260508155858 56 347 2.0 3.0 0.02 0.14 0.14 82 1016.0
20260508154859 55 355 3.0 6.0 0.05 0.14 0.14 82 1016.0
20260508154359 55 345 1.0 3.0 0.05 0.14 0.14 82 1016.0
20260508153859 55 16 1.0 3.0 0.05 0.14 0.14 83 1016.0
20260508153358 55 353 1.0 3.0 0.05 0.14 0.14 83 1016.0
20260508152900 54 11 2.0 3.0 0.05 0.14 0.14 82 1016.0
20260508152359 55 349 2.0 3.0 0.05 0.14 0.14 82 1016.0
20260508151859 55 9 2.0 5.0 0.05 0.14 0.14 82 1016.0
20260508150900 56 26 1.0 3.0 0.05 0.14 0.14 80 1016.2
20260508150358 58 34 1.0 2.0 0.05 0.14 0.14 71 1016.2
20260508145858 58 173 0.0 2.0 0.02 0.12 0.12 70 1016.1
20260508144359 59 23 2.0 5.0 0.00 0.09 0.09 66 1015.9
20260508143859 59 131 1.0 2.0 0.00 0.09 0.09 68 1016.0
20260508143358 59 131 1.0 3.0 0.00 0.09 0.09 65 1016.0
20260508142859 60 102 1.0 3.0 0.00 0.09 0.09 66 1016.0
20260508142358 60 61 0.0 2.0 0.00 0.09 0.09 67 1016.0
20260508141859 59 61 0.0 2.0 0.00 0.09 0.09 69 1016.0
20260508141358 59 61 0.0 1.0 0.00 0.09 0.09 69 1016.1
20260508140859 59 61 0.0 1.0 0.00 0.09 0.09 67 1016.1
20260508140359 59 61 1.0 2.0 0.00 0.09 0.09 71 1016.1
20260508135859 58 72 0.0 3.0 0.00 0.09 0.09 68 1016.1
20260508135400 58 103 1.0 3.0 0.00 0.09 0.09 69 1016.2
20260508133859 58 134 0.0 1.0 0.00 0.09 0.09 71 1016.2
20260508133358 58 134 1.0 1.0 0.00 0.09 0.09 69 1016.3
20260508132358 58 134 1.0 3.0 0.00 0.09 0.09 66 1016.2
20260508131858 58 90 2.0 5.0 0.00 0.09 0.09 71 1016.2
20260508131400 58 71 3.0 5.0 0.00 0.09 0.09 71 1016.2
20260508130859 58 107 1.0 3.0 0.00 0.09 0.09 70 1016.3
20260508130358 58 92 1.0 3.0 0.00 0.09 0.09 73 1016.4
20260508125358 57 92 2.0 5.0 0.00 0.09 0.09 75 1016.4
20260508124858 56 96 1.0 2.0 0.00 0.09 0.09 76 1016.4
20260508124359 56 96 1.0 2.0 0.02 0.09 0.09 77 1016.4
20260508123858 56 97 0.0 2.0 0.02 0.09 0.09 82 1016.5
20260508123358 56 86 1.0 3.0 0.03 0.09 0.09 83 1016.4
20260508122859 55 86 1.0 3.0 0.03 0.09 0.09 82 1016.4
20260508122358 55 96 2.0 3.0 0.05 0.09 0.09 80 1016.5
20260508121859 55 107 1.0 3.0 0.08 0.09 0.09 82 1016.6
20260508121359 55 62 1.0 2.0 0.09 0.09 0.09 84 1016.5
20260508120358 55 57 1.0 3.0 0.09 0.09 0.09 86 1016.5
20260508115900 54 67 1.0 2.0 0.09 0.09 0.09 88 1016.5
20260508115400 54 350 1.0 2.0 0.09 0.09 0.09 89 1016.6
20260508114359 53 78 1.0 2.0 0.08 0.08 0.08 85 1016.7
20260508113859 53 92 1.0 3.0 0.07 0.07 0.07 83 1016.7
20260508112900 53 65 1.0 3.0 0.06 0.06 0.06 79 1016.7
20260508112358 54 240 2.0 5.0 0.05 0.05 0.05 78 1016.6
20260508111858 55 203 3.0 7.0 0.02 0.02 0.02 75 1016.5
20260508110858 56 23 0.0 2.0 0.00 0.00 0.00 75 1016.3
20260508110358 56 23 1.0 2.0 0.00 0.00 0.00 74 1016.3
20260508105859 56 23 1.0 3.0 0.00 0.00 0.00 73 1016.3
20260508105358 56 23 1.0 3.0 0.00 0.00 0.00 73 1016.2
20260508104858 56 348 2.0 3.0 0.00 0.00 0.00 72 1016.3
20260508104359 56 39 1.0 2.0 0.00 0.00 0.00 75 1016.3
20260508103859 56 80 0.0 3.0 0.00 0.00 0.00 75 1016.3
20260508103359 55 80 1.0 3.0 0.00 0.00 0.00 74 1016.4
20260508102858 55 80 1.0 5.0 0.00 0.00 0.00 72 1016.4
20260508101858 55 88 1.0 3.0 0.00 0.00 0.00 73 1016.4
20260508101358 55 88 1.0 2.0 0.00 0.00 0.00 72 1016.4
20260508100859 55 88 0.0 3.0 0.00 0.00 0.00 72 1016.4
20260508100359 55 88 2.0 3.0 0.00 0.00 0.00 72 1016.4
20260508095859 55 96 2.0 5.0 0.00 0.00 0.00 72 1016.3
20260508095358 55 91 2.0 5.0 0.00 0.00 0.00 72 1016.3
20260508094858 55 90 3.0 5.0 0.00 0.00 0.00 72 1016.3
20260508094358 55 87 2.0 5.0 0.00 0.00 0.00 73 1016.3
20260508093859 55 92 3.0 6.0 0.00 0.00 0.00 73 1016.3
20260508093359 55 99 2.0 5.0 0.00 0.00 0.00 74 1016.3
20260508092859 55 83 5.0 8.0 0.00 0.00 0.00 72 1016.3
20260508092358 56 109 3.0 7.0 0.00 0.00 0.00 72 1016.2
20260508091859 55 110 5.0 7.0 0.00 0.00 0.00 73 1016.2
20260508091359 55 94 4.0 8.0 0.00 0.00 0.00 73 1016.1
20260508090900 55 135 2.0 6.0 0.00 0.00 0.00 73 1016.2
20260508085858 54 137 2.0 3.0 0.00 0.00 0.00 73 1016.2
20260508085358 54 100 2.0 3.0 0.00 0.00 0.00 74 1016.1
20260508083859 53 130 1.0 2.0 0.00 0.00 0.00 76 1016.2
20260508083358 53 90 1.0 3.0 0.00 0.00 0.00 77 1016.2
20260508082858 53 138 1.0 3.0 0.00 0.00 0.00 77 1016.2
20260508082359 52 142 1.0 2.0 0.00 0.00 0.00 78 1016.2
20260508081359 52 177 1.0 1.0 0.00 0.00 0.00 79 1016.2
20260508080858 52 177 1.0 2.0 0.00 0.00 0.00 79 1016.2
20260508075358 51 177 0.0 1.0 0.00 0.00 0.00 78 1016.1
20260508074858 51 177 1.0 1.0 0.00 0.00 0.00 79 1016.1
20260508072858 50 63 0.0 1.0 0.00 0.00 0.00 80 1016.0
20260508071858 50 63 0.0 0.0 0.00 0.00 0.00 80 1015.9
20260508070858 49 63 0.0 2.0 0.00 0.00 0.00 82 1015.8
20260508070358 49 63 0.0 2.0 0.00 0.00 0.00 82 1015.7
20260508065859 49 63 0.0 2.0 0.00 0.00 0.00 82 1015.6
20260508065357 48 63 0.0 2.0 0.00 0.00 0.00 82 1015.6
20260508064858 48 63 0.0 2.0 0.00 0.00 0.00 85 1015.6
20260508064359 48 63 0.0 0.0 0.00 0.00 0.00 85 1015.6
20260508062358 48 63 0.0 2.0 0.00 0.00 0.00 84 1015.4
20260508061858 48 63 0.0 2.0 0.00 0.00 0.00 85 1015.3
20260508061358 47 63 1.0 2.0 0.00 0.00 0.00 85 1015.3
20260508060858 47 63 0.0 1.0 0.00 0.00 0.00 85 1015.4
20260508060359 47 63 0.0 2.0 0.00 0.00 0.00 85 1015.4
20260508055858 47 63 0.0 2.0 0.00 0.00 0.00 85 1015.3
20260508055358 47 45 0.0 2.0 0.00 0.00 0.00 85 1015.2
20260508054859 47 38 0.0 2.0 0.00 0.00 0.00 85 1015.1
20260508054358 47 38 0.0 1.0 0.00 0.00 0.00 85 1015.2
20260508053858 46 38 1.0 2.0 0.00 0.00 0.00 85 1015.1
20260508053358 46 38 0.0 2.0 0.00 0.00 0.00 85 1015.2
20260508052358 46 38 1.0 2.0 0.00 0.00 0.00 85 1015.0
20260508051859 46 38 1.0 2.0 0.00 0.00 0.00 85 1015.0
20260508050358 46 39 1.0 2.0 0.00 0.00 0.00 85 1014.9
20260508045858 46 39 1.0 2.0 0.00 0.00 0.00 85 1014.9
20260508045358 46 63 1.0 2.0 0.00 0.00 0.00 85 1014.9
20260508044858 46 31 1.0 2.0 0.00 0.00 0.00 85 1014.9
20260508044358 45 31 1.0 3.0 0.00 0.00 0.00 85 1014.9
20260508043858 45 38 1.0 3.0 0.00 0.00 0.00 85 1014.8
20260508042858 45 39 1.0 2.0 0.00 0.00 0.00 85 1014.8
20260508042359 45 39 1.0 2.0 0.00 0.00 0.00 84 1014.8
20260508041859 45 39 1.0 3.0 0.00 0.00 0.00 84 1014.8
20260508041358 45 39 1.0 2.0 0.00 0.00 0.00 84 1014.8
20260508040859 45 38 1.0 2.0 0.00 0.00 0.00 85 1014.8
20260508035858 45 80 2.0 3.0 0.00 0.00 0.00 84 1014.7
20260508035357 45 92 1.0 3.0 0.00 0.00 0.00 84 1014.7
20260508034858 45 35 1.0 1.0 0.00 0.00 0.00 84 1014.7
20260508033858 46 34 1.0 2.0 0.00 0.00 0.00 83 1014.7
20260508033358 46 95 1.0 2.0 0.00 0.00 0.00 83 1014.7
20260508032858 46 95 2.0 3.0 0.00 0.00 0.00 83 1014.7
20260508032358 46 95 1.0 2.0 0.00 0.00 0.00 83 1014.7
20260508031858 46 95 1.0 2.0 0.00 0.00 0.00 82 1014.6
20260508030858 47 95 1.0 3.0 0.00 0.00 0.00 82 1014.7
20260508030359 47 30 1.0 2.0 0.00 0.00 0.00 82 1014.6
20260508025859 47 30 1.0 3.0 0.00 0.00 0.00 82 1014.6
20260508025358 47 30 1.0 2.0 0.00 0.00 0.00 82 1014.5
20260508024357 47 27 1.0 2.0 0.00 0.00 0.00 81 1014.5
20260508023858 47 27 0.0 2.0 0.00 0.00 0.00 81 1014.6
20260508023358 48 27 1.0 2.0 0.00 0.00 0.00 80 1014.5
20260508022858 48 40 1.0 3.0 0.00 0.00 0.00 80 1014.4
20260508021357 48 158 1.0 2.0 0.00 0.00 0.00 80 1014.4
20260508020858 48 158 0.0 1.0 0.00 0.00 0.00 80 1014.3
20260508020358 48 158 1.0 3.0 0.00 0.00 0.00 79 1014.4
20260508015858 48 159 0.0 2.0 0.00 0.00 0.00 79 1014.4
20260508015357 48 159 1.0 3.0 0.00 0.00 0.00 80 1014.4
20260508014858 48 203 0.0 3.0 0.00 0.00 0.00 80 1014.4
20260508014359 48 205 2.0 3.0 0.00 0.00 0.00 81 1014.4
20260508013858 48 122 1.0 2.0 0.00 0.00 0.00 81 1014.5
20260508013358 47 56 1.0 2.0 0.00 0.00 0.00 81 1014.5
20260508012857 47 56 0.0 2.0 0.00 0.00 0.00 81 1014.5
20260508012358 47 56 1.0 3.0 0.00 0.00 0.00 81 1014.5
20260508011858 47 86 1.0 3.0 0.00 0.00 0.00 81 1014.6
20260508011359 48 99 1.0 2.0 0.00 0.00 0.00 81 1014.5
20260508010857 48 150 1.0 2.0 0.00 0.00 0.00 80 1014.5
20260508010400 48 150 1.0 1.0 0.00 0.00 0.00 80 1014.5
20260508005358 49 150 1.0 2.0 0.00 0.00 0.00 79 1014.6
20260508004858 49 150 2.0 3.0 0.00 0.00 0.00 80 1014.6
20260508004359 49 150 1.0 3.0 0.00 0.00 0.00 79 1014.6
20260508003858 49 150 1.0 2.0 0.00 0.00 0.00 80 1014.6
20260508003358 49 150 2.0 3.0 0.00 0.00 0.00 80 1014.6
20260508002858 49 150 1.0 2.0 0.00 0.00 0.00 79 1014.6
20260508002358 49 150 1.0 2.0 0.00 0.00 0.00 79 1014.7
20260508001858 50 150 1.0 13.0 0.00 0.00 0.00 79 1014.7
20260508001357 50 150 1.0 2.0 0.00 0.00 0.00 77 1014.7
20260508000858 50 150 1.0 1.0 0.00 0.00 0.00 77 1014.6
20260508000357 50 150 0.0 2.0 0.00 0.00 0.00 77 1014.6
20260507235357 51 134 2.0 3.0 0.00 0.00 0.00 76 1014.6
20260507234858 51 143 2.0 5.0 0.00 0.00 0.00 76 1014.5
20260507234359 51 103 2.0 5.0 0.00 0.00 0.00 76 1014.5
20260507233859 51 147 2.0 5.0 0.00 0.00 0.00 75 1014.6
20260507233358 51 109 3.0 7.0 0.00 0.00 0.00 75 1014.6
20260507232858 51 103 1.0 5.0 0.00 0.00 0.00 75 1014.6
20260507232358 51 104 2.0 5.0 0.00 0.00 0.00 75 1014.6
20260507230938 51 103 4.0 9.0 0.00 0.00 0.00 75 1014.5
20260507230357 51 101 3.0 8.0 0.00 0.00 0.00 75 1014.6
20260507225858 50 110 4.0 7.0 0.00 0.00 0.00 76 1014.5
20260507225358 50 117 3.0 7.0 0.00 0.00 0.00 77 1014.6
20260507224858 50 95 2.0 5.0 0.00 0.00 0.00 78 1014.5
20260507224358 50 105 1.0 3.0 0.00 0.00 0.00 78 1014.5
20260507223858 50 100 2.0 3.0 0.00 0.00 0.00 78 1014.4
20260507223358 50 117 2.0 3.0 0.00 0.00 0.00 77 1014.5
20260507222859 51 80 2.0 5.0 0.00 0.00 0.00 77 1014.5
20260507222357 51 93 2.0 5.0 0.00 0.00 0.00 75 1014.4
20260507221858 51 98 2.0 5.0 0.00 0.00 0.00 74 1014.5
20260507221358 51 99 2.0 5.0 0.00 0.00 0.00 74 1014.5
20260507220858 51 99 3.0 6.0 0.00 0.00 0.00 73 1014.5
20260507220357 51 101 3.0 7.0 0.00 0.00 0.00 72 1014.5
20260507215858 52 102 5.0 9.0 0.00 0.00 0.00 71 1014.5
20260507215358 52 115 5.0 9.0 0.00 0.00 0.00 70 1014.5
20260507214858 52 127 6.0 10.0 0.00 0.00 0.00 69 1014.6
20260507214358 52 110 5.0 10.0 0.00 0.00 0.00 69 1014.6
20260507213358 52 158 2.0 5.0 0.00 0.00 0.00 70 1014.6
20260507212358 52 138 2.0 3.0 0.00 0.00 0.00 68 1014.6
20260507211858 53 142 2.0 5.0 0.00 0.00 0.00 68 1014.5
20260507210857 53 130 3.0 7.0 0.00 0.00 0.00 67 1014.4
20260507210358 53 143 4.0 7.0 0.00 0.00 0.00 66 1014.4
20260507205858 53 147 5.0 9.0 0.00 0.00 0.00 65 1014.4
20260507205357 53 125 4.0 10.0 0.00 0.00 0.00 65 1014.3
20260507204358 53 142 6.0 10.0 0.00 0.00 0.00 64 1014.2
20260507203858 53 125 6.0 10.0 0.00 0.00 0.00 64 1014.2
20260507202858 53 124 5.0 9.0 0.00 0.00 0.00 63 1014.2
20260507202357 54 125 4.0 8.0 0.00 0.00 0.00 63 1014.1
20260507201858 54 114 5.0 12.0 0.00 0.00 0.00 63 1014.0
20260507201357 54 115 4.0 8.0 0.00 0.00 0.00 63 1014.0
20260507200859 54 133 6.0 10.0 0.00 0.00 0.00 63 1013.9
20260507200357 54 133 5.0 8.0 0.00 0.00 0.00 62 1013.9
20260507195858 54 128 6.0 9.0 0.00 0.00 0.00 62 1013.9
20260507195357 54 138 5.0 10.0 0.00 0.00 0.00 62 1013.9
20260507194858 54 143 5.0 10.0 0.00 0.00 0.00 62 1013.9
20260507193358 54 135 5.0 9.0 0.00 0.00 0.00 62 1013.8
20260507192858 54 114 5.0 9.0 0.00 0.00 0.00 62 1013.7
20260507192359 54 136 5.0 12.0 0.00 0.00 0.00 61 1013.7
20260507191858 54 116 5.0 9.0 0.00 0.00 0.00 62 1013.6
20260507191358 54 108 4.0 10.0 0.00 0.00 0.00 61 1013.6
20260507190858 54 121 3.0 10.0 0.00 0.00 0.00 61 1013.5
20260507190358 54 141 5.0 9.0 0.00 0.00 0.00 61 1013.5
20260507185858 54 116 4.0 13.0 0.00 0.00 0.00 61 1013.5
20260507185357 55 106 4.0 12.0 0.00 0.00 0.00 61 1013.5
20260507184858 55 104 4.0 8.0 0.00 0.00 0.00 61 1013.5
20260507184357 55 96 5.0 9.0 0.00 0.00 0.00 60 1013.4
20260507183857 55 102 4.0 9.0 0.00 0.00 0.00 61 1013.4
20260507183358 55 106 4.0 7.0 0.00 0.00 0.00 61 1013.4
20260507182858 55 99 3.0 7.0 0.00 0.00 0.00 61 1013.4